London Heathrow Airport

Airport
ICAO code: 
EGLL
IATA Code: 
LHR
Summary
ICAO Region: 
EUR
Territory: 
Location: 
Hillingdon, London, England
Serving: 
London
Elevation: 
83 ft
Coordinates: 
Aerial View: 
51° 28' 13.234" N, 0° 27' 12.327" W
Airport BS: 
Bird Strike
Airport LOS: 
Parallel Runway Operation
Metar
Observation
EGLL 190120Z AUTO 28002KT 9999 BKN021 OVC026 05/04 Q1031 TEMPO 4000 BR
Station
London / Heathrow Airport
Date/Time
2022-01-19 01:20:00
Wind direction
280°
Wind speed
02 kts
Lowest cloud amount
broken clouds
Temperature
5°C
Dew point
4°C
Humidity
93%
QNH
1031 hPa
Weather condition
n/a

Largest and busiest airport in the United Kingdom, which also handles more international passengers than any other airport in the world. It serves both the London region and a wide area of central and southern England and Wales as well as being a major European hub airport.

Climatology

Temperate Marine climate/Oceanic climate (Köppen climate classification Cfb). Moderately cool summer and comparatively warm winter with a temperature range of only 14°C. Prevailing south-westerly winds from the Atlantic Ocean.

Runways

Designator Length Width Surface Rops
09R/27L 3658 45 ASP Yes/Yes
09L/27R 3901 50 ASP Yes/Yes

SKYbrary Partners:

Safety knowledge contributed by: